User: anonymous   Login
Location: *
(50.6089°N, 2.2719°E)
Time: 21:59:02
(UTC+00:00)
Language:

STARLINK-61 - Orbit

View from above orbital plane
View from above orbital plane
View from above satellite
View from above satellite

Ground track
Ground track

The orbit data is extracted from the following two-line orbital elements,

1 44249U 19029Q   19343.25002315 -.00018162  00000-0 -10271-2 0  9995
2 44249  53.0017 351.0335 0004345   7.4474 272.5124 15.12129472 30261
Epoch (UTC): 09 December 2019 06:00:02
Eccentricity: 0.0004345
inclination: 53.0017°
perigee height: 527 km
apogee height: 533 km
right ascension of ascending node: 351.0335°
argument of perigee: 7.4474°
revolutions per day: 15.12129472
mean anomaly at epoch: 272.5124°
orbit number at epoch: 3026

The dashed part of the orbit path shows where the satellite is in the earth's shadow,  

DLR